Zurück zum Katalog

SL-16 DEB

LostLEO
NORAD 39710·DEBRIS·🇷🇺 Russia

Gestartet Dec 25, 1992 von Baikonur Cosmodrome

Loading…

Nächste Überflüge (nächste 24 Stunden)

TLE

VeraltetSource: Space-Track

Epoche: Nov 12, 2022, 06:50 UTC

1 39710U 92093KA  22316.28487140  .00000811  00000-0  47737-3 0  9992
2 39710  71.2200   5.2909 0079797  37.3475 323.3156 14.09285876955177

Verfolge SL-16 DEB in Echtzeit mit AllMySat

Download on the App Store